"2016-05-08 00:00:00",1614171,10.87,27.77,7.769,1.498,13.65,103.2345,7.557,8.77,60.79,0,110.1,13.22,8.34,349.8
"2016-05-08 00:00:30",1614172,11.35,27.65,7.381,1.493,13.35,103.2212,7.523,8.75,60.67,0,110.1,13.22,8.30,349.6
"2016-05-08 00:01:00",1614173,11.32,27.72,6.844,1.571,13.49,103.2203,7.521,8.7,60.62,0,110.1,13.22,8.30,349.7
"2016-05-08 00:01:30",1614174,12.6,31,6.995,1.534,14.49,103.2203,7.521,8.79,60.6,0,110.1,13.22,8.30,353.0
"2016-05-08 00:02:00",1614175,13,31.25,6.864,1.391,14.71,103.2203,7.521,8.8,60.66,0,110.1,13.22,8.30,353.2
"2016-05-08 00:02:30",1614176,13.46,31.52,7.032,1.449,14.87,103.2203,7.521,8.78,60.52,0,110.1,13.23,8.30,353.5
"2016-05-08 00:03:00",1614177,13.04,31.67,7.115,1.486,15.04,103.2119,7.499,8.8,60.65,0,110.1,13.23,8.28,353.7
"2016-05-08 00:03:30",1614178,12.36,32.42,6.046,1.331,15.11,103.1952,7.456,8.79,60.65,0,110.1,13.23,8.23,354.4
"2016-05-08 00:04:00",1614179,13.4,32.1,6.706,1.229,14.55,103.1873,7.436,8.76,60.56,0,110.1,13.23,8.21,354.1
"2016-05-08 00:04:30",1614180,13.52,32.78,6.101,1.364,14.64,103.1879,7.438,8.77,60.66,0,110.1,13.23,8.22,354.8
"2016-05-08 00:05:00",1614181,13.56,32.53,6.477,1.294,14.74,103.1876,7.437,8.73,60.81,0,110.1,13.23,8.22,354.5
"2016-05-08 00:05:30",1614182,13.41,32.31,6.661,1.3,14.93,103.1876,7.437,8.72,60.61,0,110.1,13.23,8.22,354.3
"2016-05-08 00:06:00",1614183,13.82,33.52,6.247,1.369,14.71,103.1891,7.441,8.73,60.56,0,110.1,13.23,8.22,355.5
"2016-05-08 00:06:30",1614184,14.17,33.29,6.668,1.39,14.77,103.1846,7.429,8.73,60.74,0,110.1,13.23,8.21,355.3
"2016-05-08 00:07:00",1614185,14.54,34.44,6.102,1.196,14.52,103.1767,7.409,8.71,61.01,0,110.1,13.23,8.19,356.4
"2016-05-08 00:07:30",1614186,14.43,33.51,6.625,1.285,14.62,103.1762,7.408,8.69,61.56,0,110.1,13.23,8.19,355.5
"2016-05-08 00:08:00",1614187,13.77,33.84,7.029,1.303,14.76,103.173,7.4,8.7,61.8,0,110.1,13.23,8.18,355.8
"2016-05-08 00:08:30",1614188,13.95,36.02,6.482,1.32,14.53,103.1654,7.38,8.68,61.76,0,110.1,13.23,8.16,358.0
"2016-05-08 00:09:00",1614189,13.25,38.35,5.971,1.402,14.25,103.1674,7.385,8.66,61.53,0,110.1,13.23,8.16,0.3
"2016-05-08 00:09:30",1614190,13.94,36.95,6.352,1.456,14.6,103.1655,7.381,8.65,61.58,0,110.1,13.23,8.16,359.0
"2016-05-08 00:10:00",1614191,13.64,37.11,6.284,1.232,14.54,103.1468,7.333,8.61,61.66,0,110.1,13.23,8.11,359.1
"2016-05-08 00:10:30",1614192,13.9,35.34,6.593,1.296,14.86,103.1373,7.308,8.6,61.88,0,110.1,13.23,8.09,357.3
"2016-05-08 00:11:00",1614193,14.01,34.59,6.28,1.29,14.56,103.1402,7.316,8.59,61.99,0,110.1,13.23,8.09,356.6
"2016-05-08 00:11:30",1614194,13.73,34.81,6.539,1.381,14.5,103.1422,7.321,8.59,61.8,0,110.1,13.23,8.10,356.8
"2016-05-08 00:12:00",1614195,13.64,34.17,6.382,1.376,14.97,103.1446,7.327,8.57,61.62,0,110.1,13.23,8.10,356.2
"2016-05-08 00:12:30",1614196,13.45,35.35,6.43,1.393,14.58,103.1426,7.322,8.55,61.84,0,110.1,13.23,8.10,357.4
"2016-05-08 00:13:00",1614197,13.26,35.38,6.588,1.18,14.85,103.1384,7.311,8.53,61.95,0,110.1,13.23,8.09,357.4
"2016-05-08 00:13:30",1614198,13.48,34.45,6.646,1.428,14.8,103.132,7.295,8.54,61.77,0,110.1,13.22,8.07,356.5
"2016-05-08 00:14:00",1614199,12.86,36.63,6.167,1.384,14.57,103.1303,7.291,8.52,61.55,0,110.1,13.22,8.07,358.6
"2016-05-08 00:14:30",1614200,12.03,37.94,6.822,1.363,14.28,103.1297,7.289,8.5,62.14,0,110.1,13.23,8.07,359.9
"2016-05-08 00:15:00",1614201,11.28,38.3,6.83,1.365,13.91,103.1289,7.287,8.52,62.37,0,110.1,13.23,8.06,0.3
"2016-05-08 00:15:30",1614202,11.31,39.12,6.816,1.416,14.16,103.1179,7.259,8.45,62.29,0,110.1,13.22,8.04,1.1
"2016-05-08 00:16:00",1614203,9.54,31.17,4.854,1.071,10.99,103.1188,7.261,8.22,62.1,0,110.1,13.22,8.04,353.2
"2016-05-08 00:16:30",1614204,10.44,35.46,6.864,1.428,12.59,103.1177,7.258,8.41,62.37,0,110.1,13.23,8.04,357.5
"2016-05-08 00:17:00",1614205,10.98,39.55,7.219,1.323,13.3,103.103,7.221,8.35,62.34,0,110.1,13.23,8.00,1.5
"2016-05-08 00:17:30",1614206,11.13,41.15,6.699,1.435,14.06,103.086,7.177,8.42,62.45,0,110.1,13.23,7.95,3.2
"2016-05-08 00:18:00",1614207,10.78,39.51,6.848,1.448,14.44,103.0858,7.177,8.4,62.55,0,110.1,13.23,7.95,1.5
"2016-05-08 00:18:30",1614208,10.2,38.21,7.248,1.445,13.3,103.083,7.17,8.29,62.43,0,110.1,13.23,7.95,0.2
"2016-05-08 00:19:00",1614209,10.25,37.53,7.352,1.551,12.62,103.0702,7.137,8.3,62.58,0,110.1,13.23,7.91,359.5
"2016-05-08 00:19:30",1614210,9.72,35.46,6.7,1.534,12.8,103.0561,7.101,8.28,62.67,0,110.1,13.23,7.88,357.5
"2016-05-08 00:20:00",1614211,10.46,38.18,7.046,1.386,13.67,103.0519,7.09,8.26,62.7,0,110.1,13.23,7.87,0.2
"2016-05-08 00:20:30",1614212,9.69,37.1,7.315,1.247,13.03,103.0505,7.087,8.26,62.78,0,110.1,13.24,7.86,359.1
"2016-05-08 00:21:00",1614213,10.07,38.99,6.468,1.466,14.44,103.0375,7.053,8.27,62.91,0,110.1,13.24,7.83,1.0
"2016-05-08 00:21:30",1614214,10.45,34.99,7.51,1.561,13,103.0313,7.037,8.22,63.01,0,110.1,13.24,7.81,357.0
"2016-05-08 00:22:00",1614215,9.93,37.18,7.334,1.454,13.29,103.0188,7.006,8.21,63.04,0,110.1,13.24,7.78,359.2
"2016-05-08 00:22:30",1614216,10.13,34.61,7.064,1.188,12.83,103.018,7.004,8.19,63.1,0,110.1,13.24,7.78,356.6
"2016-05-08 00:23:00",1614217,9.47,34.18,6.605,1.384,12.5,103.018,7.004,8.1,63.16,0,110.1,13.24,7.78,356.2
"2016-05-08 00:23:30",1614218,9.96,36.4,7.286,1.373,13.71,103.018,7.004,8.17,63.29,0,110.1,13.24,7.78,358.4
"2016-05-08 00:24:00",1614219,9.84,37.08,7.12,1.424,14.03,103.0177,7.003,8.14,63.36,0,110.1,13.24,7.78,359.1
"2016-05-08 00:24:30",1614220,9.97,33.38,6.658,1.601,13.23,103.018,7.004,8.13,63.37,0,110.1,13.24,7.78,355.4
"2016-05-08 00:25:00",1614221,10.54,33.6,7.36,1.42,13.43,103.018,7.004,8.13,63.35,0,110.1,13.24,7.78,355.6
"2016-05-08 00:25:30",1614222,11.07,32.13,7.516,1.701,14.28,103.018,7.004,8.21,63.25,0,110,13.24,7.78,354.1
"2016-05-08 00:26:00",1614223,11.36,30.9,7.016,1.464,13.48,103.018,7.004,8.11,63.11,0,110.1,13.24,7.78,352.9
"2016-05-08 00:26:30",1614224,11.26,31.28,7.188,1.438,13.98,103.018,7.004,8.17,63.19,0,110.1,13.23,7.78,353.3
"2016-05-08 00:27:00",1614225,11.21,30.03,7.137,1.432,13.65,103.0183,7.004,8.11,63,0,110.1,13.24,7.78,352.0
"2016-05-08 00:27:30",1614226,10.37,29.17,7.163,1.42,13.68,103.0281,7.03,8.17,62.68,0,110,13.24,7.81,351.2
"2016-05-08 00:28:00",1614227,11.48,31.95,6.82,1.253,14.19,103.0355,7.048,8.15,62.56,0,110.1,13.24,7.83,354.0
"2016-05-08 00:28:30",1614228,11.14,30.52,7.183,1.418,13.96,103.0423,7.066,8.09,62.68,0,110.1,13.24,7.84,352.5
"2016-05-08 00:29:00",1614229,10.11,26.94,6.641,1.312,13.22,103.0502,7.086,8.17,62.55,0,110.1,13.24,7.86,348.9
"2016-05-08 00:29:30",1614230,11.04,30.62,7.264,1.454,14.19,103.0519,7.09,8.16,61.96,0,110.1,13.23,7.87,352.6
"2016-05-08 00:30:00",1614231,11.53,30.85,7.271,1.376,13.7,103.0519,7.09,8.17,62.08,0,110.1,13.24,7.87,352.9
"2016-05-08 00:30:30",1614232,10.71,29.41,7.222,1.479,13.68,103.0598,7.11,8.23,62.05,0,110.1,13.23,7.89,351.4
"2016-05-08 00:31:00",1614233,11.43,31.66,6.985,1.467,14.36,103.0705,7.138,8.25,61.69,0,110.1,13.23,7.91,353.7
"2016-05-08 00:31:30",1614234,10.44,29.01,7.819,1.853,14.11,103.0818,7.167,8.2,60.93,0,110.1,13.23,7.94,351.0
"2016-05-08 00:32:00",1614235,10.79,30.27,7.359,1.393,13.78,103.0858,7.177,8.24,60.64,0,110.1,13.23,7.95,352.3
"2016-05-08 00:32:30",1614236,10.58,28.52,6.841,1.484,13.31,103.0855,7.176,8.24,60.47,0,110.1,13.23,7.95,350.5
"2016-05-08 00:33:00",1614237,11.02,29.28,7.018,1.424,13.4,103.0863,7.178,8.23,60.3,0,110.1,13.23,7.96,351.3
"2016-05-08 00:33:30",1614238,10.77,32.31,7.164,1.566,14.34,103.0971,7.206,8.33,60.14,0,110.1,13.23,7.98,354.3
"2016-05-08 00:34:00",1614239,9.6,28.59,6.833,1.552,13.62,103.1101,7.239,8.27,59.83,0,110.1,13.23,8.02,350.6
"2016-05-08 00:34:30",1614240,9.95,32.23,6.29,1.266,15.34,103.1194,7.263,8.35,59.43,0,110.1,13.23,8.04,354.2
"2016-05-08 00:35:00",1614241,8.49,25.13,7.029,1.586,12.96,103.12,7.264,8.25,59.13,0,110.1,13.23,8.04,347.1
"2016-05-08 00:35:30",1614242,8.99,25.52,6.463,1.294,12.61,103.1217,7.269,8.26,58.93,0,110.1,13.23,8.05,347.5
"2016-05-08 00:36:00",1614243,9.75,28.72,7.099,1.265,13.71,103.1313,7.293,8.35,59.24,0,110.1,13.23,8.07,350.7
"2016-05-08 00:36:30",1614244,9.78,30.01,7.307,1.522,14.27,103.1375,7.309,8.4,59.29,0,110.1,13.23,8.09,352.0
"2016-05-08 00:37:00",1614245,8.62,26.43,7.424,1.594,13.98,103.1505,7.342,8.39,58.98,0,110.1,13.23,8.12,348.4
"2016-05-08 00:37:30",1614246,8.21,26.68,7.347,1.454,13.98,103.1533,7.349,8.39,58.76,0,110.1,13.23,8.13,348.7
"2016-05-08 00:38:00",1614247,7.582,23.95,6.709,1.45,12.47,103.1527,7.348,8.36,58.58,0,110.1,13.23,8.13,346.0
"2016-05-08 00:38:30",1614248,8,24.55,6.69,1.344,12.93,103.153,7.349,8.36,58.3,0,110.1,13.24,8.13,346.5
"2016-05-08 00:39:00",1614249,7.258,24.14,7.027,1.391,13.47,103.1632,7.375,8.48,58.31,0,110.1,13.24,8.15,346.1
"2016-05-08 00:39:30",1614250,8.1,27.33,6.942,1.303,14.1,103.1719,7.397,8.49,58.05,0,110.1,13.24,8.17,349.3
"2016-05-08 00:40:00",1614251,7.409,25.32,7.703,1.494,13.68,103.1827,7.424,8.47,58.02,0,110.1,13.24,8.20,347.3
"2016-05-08 00:40:30",1614252,7.369,24.85,7.235,1.5,13.66,103.1849,7.43,8.41,57.84,0,110.1,13.24,8.21,346.9
"2016-05-08 00:41:00",1614253,6.833,21.56,7.578,1.569,12.48,103.1855,7.432,8.42,57.84,0,110.1,13.24,8.21,343.6
"2016-05-08 00:41:30",1614254,5.88,20.27,6.555,1.247,12.74,103.1914,7.447,8.42,57.7,0,110.1,13.24,8.22,342.3
"2016-05-08 00:42:00",1614255,6.978,25.89,8.04,1.656,13.78,103.1987,7.465,8.58,57.55,0,110.1,13.24,8.24,347.9
"2016-05-08 00:42:30",1614256,7.097,26.56,7.639,1.558,13.85,103.2044,7.48,8.53,57.52,0,110.1,13.24,8.26,348.6
"2016-05-08 00:43:00",1614257,5.778,21.25,9.12,1.619,13.95,103.2097,7.493,8.56,57.23,0,110.1,13.24,8.27,343.2
"2016-05-08 00:43:30",1614258,6.766,25.42,7.584,1.707,13.36,103.2173,7.513,8.57,57.07,0,110.1,13.24,8.29,347.4
"2016-05-08 00:44:00",1614259,5.085,18.04,5.733,1.293,11.43,103.2168,7.512,8.41,57.02,0,110.1,13.24,8.29,340.0
"2016-05-08 00:44:30",1614260,5.752,19.85,6.179,1.209,11.94,103.2144,7.506,8.43,56.97,0,110.1,13.24,8.28,341.9
"2016-05-08 00:45:00",1614261,6.259,22.55,8.21,1.368,14.53,103.2133,7.503,8.66,57.11,0,110.1,13.24,8.28,344.5
"2016-05-08 00:45:30",1614262,5.658,20.36,8.03,1.352,13.82,103.2166,7.511,8.6,56.84,0,110.1,13.24,8.29,342.4
"2016-05-08 00:46:00",1614263,6.228,22.01,10.63,1.984,14.76,103.2282,7.541,8.64,56.94,0,110.1,13.23,8.32,344.0
"2016-05-08 00:46:30",1614264,5.442,18.78,8.09,1.056,12.6,103.2318,7.55,8.61,56.7,0,110.1,13.23,8.33,340.8
"2016-05-08 00:47:00",1614265,5.54,18.72,9.09,1.752,12.3,103.2391,7.569,8.52,56.59,0,110.1,13.24,8.35,340.7
"2016-05-08 00:47:30",1614266,4.749,15.17,4.409,0.786,11.13,103.2405,7.572,8.48,56.59,0,110.1,13.24,8.35,337.2
"2016-05-08 00:48:00",1614267,5.593,19.71,9.44,1.763,13.44,103.2428,7.578,8.71,56.67,0,110.1,13.23,8.36,341.7
"2016-05-08 00:48:30",1614268,6.199,24.8,7.708,1.436,14.32,103.2425,7.577,8.74,56.72,0,110.1,13.23,8.36,346.8
"2016-05-08 00:49:00",1614269,5.969,22.34,8.28,1.337,14.26,103.2443,7.582,8.71,56.8,0,110.1,13.23,8.36,344.3
"2016-05-08 00:49:30",1614270,5.205,18.27,7.404,1.409,12.65,103.241,7.574,8.68,56.75,0,110.1,13.23,8.35,340.3
"2016-05-08 00:50:00",1614271,4.965,17.1,7.969,1.589,11.72,103.2396,7.57,8.53,56.79,0,110.1,13.23,8.35,339.1
"2016-05-08 00:50:30",1614272,4.314,13.04,5.095,0.491,10.78,103.2384,7.567,8.52,56.61,0,110.1,13.28,8.35,335.0
"2016-05-08 00:51:00",1614273,4.791,17.98,8.45,1.371,12.78,103.2375,7.565,8.63,56.68,0,110.1,13.23,8.34,340.0
"2016-05-08 00:51:30",1614274,5.361,21.8,8.93,1.422,14.79,103.239,7.568,8.78,56.74,0,110.1,13.23,8.35,343.8
"2016-05-08 00:52:00",1614275,5.315,18.69,8.05,1.45,14.51,103.2401,7.571,8.78,56.55,0,110.1,13.23,8.35,340.7
"2016-05-08 00:52:30",1614276,4.978,16.21,8.01,1.326,13.61,103.2395,7.57,8.68,56.27,0,110.1,13.23,8.35,338.2
"2016-05-08 00:53:00",1614277,4.839,14.53,7.815,1.264,12.09,103.2443,7.582,8.66,56.13,0,110.1,13.24,8.36,336.5
"2016-05-08 00:53:30",1614278,3.836,15.4,4.007,0.577,10.73,103.2465,7.588,8.56,56.16,0,110.1,13.28,8.37,337.4
"2016-05-08 00:54:00",1614279,3.143,10.3,3.64,0.336,11.05,103.2519,7.601,8.56,56.11,0,110.1,13.28,8.38,332.3
"2016-05-08 00:54:30",1614280,5.013,23.75,6.863,1.295,13.62,103.2541,7.607,8.79,56.19,0,110.1,13.24,8.39,345.8
"2016-05-08 00:55:00",1614281,5.189,21.03,8.69,1.407,14.88,103.2595,7.621,8.82,56.18,0,110.1,13.24,8.40,343.0
"2016-05-08 00:55:30",1614282,4.342,21.11,8.24,1.363,14.36,103.2617,7.626,8.78,56.02,0,110.1,13.24,8.41,343.1
"2016-05-08 00:56:00",1614283,3.685,17.19,7.211,1.329,12.6,103.2636,7.631,8.66,55.93,0,110.1,13.24,8.41,339.2
"2016-05-08 00:56:30",1614284,2.679,10.98,4.166,0.293,10.74,103.2639,7.632,8.58,55.84,0,110.1,13.29,8.41,333.0
"2016-05-08 00:57:00",1614285,2.54,9.35,3.434,0.24,10.77,103.2645,7.633,8.58,55.9,0,110.1,13.29,8.41,331.4
"2016-05-08 00:57:30",1614286,3.657,17.33,6.652,1.172,12.15,103.263,7.63,8.62,56.04,0,110.1,13.24,8.41,339.3
"2016-05-08 00:58:00",1614287,4.399,21.62,7.63,1.39,12.75,103.2615,7.626,8.76,56.34,0,110.1,13.24,8.40,343.6
"2016-05-08 00:58:30",1614288,6.068,28.64,7.344,1.741,14.31,103.2621,7.627,8.82,56.55,0,110.1,13.24,8.41,350.6
"2016-05-08 00:59:00",1614289,6.613,29.49,7.625,1.624,14.17,103.2601,7.622,8.81,56.68,0,110.1,13.24,8.40,351.5
"2016-05-08 00:59:30",1614290,6.737,28.6,7.117,1.357,13.27,103.2592,7.62,8.77,56.66,0,110.1,13.24,8.40,350.6
"2016-05-08 01:00:00",1614291,6.066,24.86,5.483,1.083,11.72,103.2633,7.63,8.66,56.7,0,110.1,13.24,8.41,346.9
"2016-05-08 01:00:30",1614292,6.175,26.09,6.588,1.326,12.57,103.2618,7.627,8.69,56.87,0,110.1,13.24,8.41,348.1
"2016-05-08 01:01:00",1614293,6.04,27.95,7.078,1.312,13.67,103.2615,7.626,8.81,56.94,0,110.1,13.24,8.40,350.0
"2016-05-08 01:01:30",1614294,5.585,27.45,7.061,1.433,12.98,103.2615,7.626,8.74,56.88,0,110.1,13.24,8.40,349.5
"2016-05-08 01:02:00",1614295,5.153,27.67,6.498,1.42,14.32,103.2627,7.629,8.86,56.97,0,110.1,13.24,8.41,349.7
"2016-05-08 01:02:30",1614296,4.382,21.19,9.14,1.468,12.62,103.2612,7.625,8.77,56.69,0,110.1,13.23,8.40,343.2
"2016-05-08 01:03:00",1614297,3.287,17.37,3.668,0.457,10.87,103.2627,7.629,8.62,56.47,0,110.1,13.28,8.41,339.4
"2016-05-08 01:03:30",1614298,4.313,23.1,6.514,1.149,12.06,103.2607,7.624,8.71,56.49,0,110.1,13.23,8.40,345.1
"2016-05-08 01:04:00",1614299,4.589,21.89,6.494,1.403,13.02,103.2578,7.617,8.79,56.67,0,110.1,13.23,8.40,343.9
"2016-05-08 01:04:30",1614300,4.53,19.04,6.459,1.198,11.88,103.255,7.609,8.61,56.47,0,110.1,13.24,8.39,341.0
"2016-05-08 01:05:00",1614301,4.335,17.73,7.193,1.226,12.94,103.2488,7.593,8.79,56.68,0,110.1,13.23,8.37,339.7
"2016-05-08 01:05:30",1614302,5.334,25.42,7.278,1.416,14.41,103.2417,7.575,8.83,56.63,0,110.1,13.23,8.35,347.4
"2016-05-08 01:06:00",1614303,5.45,22.64,6.615,1.096,12.61,103.2357,7.56,8.75,56.59,0,110.1,13.23,8.34,344.6
"2016-05-08 01:06:30",1614304,5.109,23.66,7.954,1.325,12.3,103.2318,7.55,8.71,56.75,0,110.1,13.23,8.33,345.7
"2016-05-08 01:07:00",1614305,5.515,25.76,7.258,1.396,12.41,103.2258,7.535,8.73,56.86,0,110.1,13.23,8.31,347.8
"2016-05-08 01:07:30",1614306,5.272,25.51,6.707,1.285,12.22,103.225,7.533,8.66,56.84,0,110.1,13.23,8.31,347.5
"2016-05-08 01:08:00",1614307,5.106,26.03,6.561,1.201,12.28,103.2247,7.532,8.69,56.96,0,110.1,13.23,8.31,348.0
"2016-05-08 01:08:30",1614308,6.064,31.83,7.044,1.408,14.08,103.225,7.533,8.84,57.21,0,110.1,13.23,8.31,353.8
"2016-05-08 01:09:00",1614309,5.682,28.39,7.954,1.656,13.48,103.225,7.533,8.81,57.17,0,110.1,13.23,8.31,350.4
"2016-05-08 01:09:30",1614310,4.522,22.35,10.24,1.964,13.09,103.2244,7.531,8.7,56.81,0,110.2,13.23,8.31,344.4
"2016-05-08 01:10:00",1614311,4.361,23.56,9.08,1.568,13.65,103.2268,7.537,8.79,56.81,0,110.1,13.24,8.32,345.6
"2016-05-08 01:10:30",1614312,3.434,20.13,3.951,0.822,11.05,103.2244,7.531,8.58,56.5,0,110.1,13.24,8.31,342.1
"2016-05-08 01:11:00",1614313,3.718,21.18,2.088,0.59,10.67,103.2244,7.531,8.57,56.53,0,110.1,13.28,8.31,343.2
"2016-05-08 01:11:30",1614314,3.469,20.73,7.612,1.34,12.77,103.225,7.533,8.64,56.71,0,110.1,13.24,8.31,342.7
"2016-05-08 01:12:00",1614315,4.325,27.19,8.34,1.495,14.33,103.2241,7.53,8.82,56.85,0,110.1,13.24,8.31,349.2
"2016-05-08 01:12:30",1614316,4.203,25.43,6.936,1.357,14.26,103.2218,7.524,8.77,56.87,0,110.1,13.24,8.30,347.4
"2016-05-08 01:13:00",1614317,2.861,17.97,7.106,1.195,12.33,103.2233,7.528,8.68,56.84,0,110.1,13.24,8.31,340.0
"2016-05-08 01:13:30",1614318,2.843,18.23,8.97,1.429,13.41,103.2209,7.522,8.72,56.82,0,110.1,13.24,8.30,340.2
"2016-05-08 01:14:00",1614319,1.63,14.03,4.193,0.325,10.55,103.2224,7.526,8.55,56.64,0,110.1,13.29,8.30,336.0
"2016-05-08 01:14:30",1614320,1.373,12.88,4.413,0.307,10.45,103.2224,7.526,8.55,56.7,0,110.1,13.29,8.30,334.9
"2016-05-08 01:15:00",1614321,1.313,9,7.969,0.672,10.77,103.2212,7.523,8.57,56.75,0,110.1,13.25,8.30,331.0
"2016-05-08 01:15:30",1614322,2.75,14.16,9.56,1.41,13.35,103.223,7.527,8.68,56.91,0,110.1,13.24,8.31,336.2
"2016-05-08 01:16:00",1614323,2.452,6.712,9.47,1.095,12.38,103.2212,7.523,8.63,56.91,0,110.1,13.24,8.30,328.7
"2016-05-08 01:16:30",1614324,2.716,2.999,6.469,1.627,12.26,103.2204,7.521,8.68,56.99,0,110.1,13.24,8.30,325.0
"2016-05-08 01:17:00",1614325,3.342,5.661,9.1,1.4,13.42,103.2209,7.522,8.7,57.06,0,110.2,13.24,8.30,327.7
"2016-05-08 01:17:30",1614326,2.162,10.24,8.75,1.432,12.69,103.2201,7.52,8.72,57.05,0,110.1,13.24,8.30,332.2
"2016-05-08 01:18:00",1614327,1.734,2.468,6.358,0.497,10.41,103.2178,7.514,8.53,56.87,0,110.1,13.29,8.29,324.5
"2016-05-08 01:18:30",1614328,1.876,1.57,3.9,0.177,10.22,103.2169,7.512,8.53,56.97,0,110.1,13.29,8.29,323.6
"2016-05-08 01:19:00",1614329,3.145,10.78,6.506,1.208,11.47,103.215,7.507,8.57,57.22,0,110.1,13.24,8.29,332.8
"2016-05-08 01:19:30",1614330,3.84,17.11,8.34,1.314,12.83,103.2116,7.498,8.73,57.49,0,110.1,13.24,8.28,339.1
"2016-05-08 01:20:00",1614331,2.972,11.77,7.763,1.28,11.89,103.2113,7.498,8.53,57.19,0,110.1,13.24,8.28,333.8
"2016-05-08 01:20:30",1614332,3.495,17.84,6.593,1.265,13.32,103.2088,7.491,8.69,57.15,0,110.1,13.24,8.27,339.8
"2016-05-08 01:21:00",1614333,3.927,7.049,10.83,1.546,14.24,103.2065,7.485,8.76,57.13,0,110.1,13.24,8.26,329.0
"2016-05-08 01:21:30",1614334,2.446,3.449,11.85,1.172,12.18,103.2057,7.483,8.58,56.85,0,110.1,13.24,8.26,325.4
"2016-05-08 01:22:00",1614335,2.044,354.5,3.929,0.371,10.49,103.2045,7.48,8.51,56.78,0,110.1,13.28,8.26,316.5
"2016-05-08 01:22:30",1614336,2.801,352.3,4.886,0.614,10.46,103.2054,7.482,8.52,56.76,0,110.1,13.28,8.26,314.3
"2016-05-08 01:23:00",1614337,2.896,356.7,17.22,1.71,13.12,103.2057,7.483,8.63,57.14,0,110.1,13.23,8.26,318.7
"2016-05-08 01:23:30",1614338,2.294,335.9,19,1.508,12.85,103.2065,7.485,8.6,56.9,0,110.1,13.23,8.26,297.9
"2016-05-08 01:24:00",1614339,0.796,5.076,23.14,0.382,11.25,103.2096,7.493,8.51,56.46,0,110.1,13.28,8.27,327.1
"2016-05-08 01:24:30",1614340,2.078,279.5,48.4,1.165,13.18,103.2144,7.506,8.67,56.52,0,110.1,13.24,8.28,241.5
"2016-05-08 01:25:00",1614341,2.623,12,25.22,1.38,14.59,103.2181,7.515,8.78,56.8,0,110.1,13.23,8.29,334.0
"2016-05-08 01:25:30",1614342,1.583,15.04,8.45,1.107,11.31,103.2189,7.517,8.58,57.24,0,110.1,13.23,8.30,337.0
"2016-05-08 01:26:00",1614343,0.879,12.08,7.713,0.445,10.01,103.2192,7.518,8.52,57.42,0,110.1,13.28,8.30,334.1
"2016-05-08 01:26:30",1614344,2.461,22.08,3.075,0.317,9.81,103.2192,7.518,8.52,57.87,0,110.1,13.29,8.30,344.1
"2016-05-08 01:27:00",1614345,3.062,23.73,6.749,1.463,11.49,103.2195,7.519,8.62,58.57,0,110.1,13.24,8.30,345.7
"2016-05-08 01:27:30",1614346,3.423,24.16,9.48,1.677,12.12,103.2184,7.516,8.63,59.08,0,110.1,13.24,8.29,346.2
"2016-05-08 01:28:00",1614347,3.01,358.5,22.91,1.214,11.48,103.2133,7.503,8.66,59.14,0,110.1,13.24,8.28,320.5
"2016-05-08 01:28:30",1614348,4.146,28.66,8.09,1.398,12.96,103.2059,7.484,8.64,58.93,0,110.1,13.24,8.26,350.7
"2016-05-08 01:29:00",1614349,3.75,31.66,7.611,1.27,11.78,103.2014,7.472,8.69,59.34,0,110.1,13.24,8.25,353.7
"2016-05-08 01:29:30",1614350,4.165,36.62,7.139,1.426,11.58,103.1929,7.451,8.67,59.88,0,110.1,13.24,8.23,358.6
"2016-05-08 01:30:00",1614351,3.39,38.11,3.241,0.391,8.8,103.1867,7.435,8.59,60.99,0,110.1,13.29,8.21,0.1
"2016-05-08 01:30:30",1614352,4.875,46.92,9.45,1.545,11.24,103.1814,7.421,8.64,62.71,0,110.1,13.24,8.20,8.9
"2016-05-08 01:31:00",1614353,4.497,51.96,7.295,1.291,10.81,103.1619,7.371,8.73,63.71,0,110.1,13.24,8.15,14.0
"2016-05-08 01:31:30",1614354,4.403,61.71,8.21,1.487,11.02,103.1492,7.339,8.59,64.17,0,110.1,13.24,8.12,23.7
"2016-05-08 01:32:00",1614355,3.708,59.79,7.114,1.318,9.84,103.1277,7.284,8.58,64.84,0,110.1,13.24,8.06,21.8
"2016-05-08 01:32:30",1614356,4.145,57.81,7.732,1.326,10.34,103.1159,7.254,8.61,65.21,0,110.1,13.24,8.03,19.8
"2016-05-08 01:33:00",1614357,4.432,52.74,5.893,1.124,10.04,103.0907,7.189,8.46,65.29,0,110.1,13.24,7.97,14.7
"2016-05-08 01:33:30",1614358,5.281,41.69,9.62,1.308,11.81,103.0628,7.118,8.45,64.71,0,110.1,13.24,7.90,3.7
"2016-05-08 01:34:00",1614359,3.666,25.35,7.864,1.656,12.07,103.0342,7.045,8.49,63.8,0,110.1,13.24,7.82,347.4
"2016-05-08 01:34:30",1614360,3.963,0.395,20.62,2.235,12.99,103.0208,7.011,8.35,63.03,0,110.1,13.24,7.79,322.4
"2016-05-08 01:35:00",1614361,2.966,294.8,26.78,1.496,11.63,103.0002,6.958,8.21,60,0,110.1,13.29,7.73,256.8
"2016-05-08 01:35:30",1614362,2.484,2.533,32.61,1.754,12.35,102.9918,6.937,8.21,58.17,0,110.1,13.24,7.71,324.5
"2016-05-08 01:36:00",1614363,3.664,40.45,12.48,1.671,11.9,102.9852,6.92,8.2,57.89,0,110.1,13.24,7.70,2.5
"2016-05-08 01:36:30",1614364,2.847,2.173,14.47,0.853,10.95,102.973,6.889,8.03,58.74,0,110.1,13.24,7.66,324.2
"2016-05-08 01:37:00",1614365,3.454,38.21,15.06,1.447,12.83,102.9641,6.866,8.21,59.6,0,110.1,13.24,7.64,0.2
"2016-05-08 01:37:30",1614366,2.357,10.89,13.3,1.2,11.57,102.9567,6.847,8.04,59.54,0,110.1,13.24,7.62,332.9
"2016-05-08 01:38:00",1614367,4.287,14.89,11.55,1.777,13.37,102.9567,6.847,8.18,59.82,0,110.1,13.24,7.62,336.9
"2016-05-08 01:38:30",1614368,4.437,5.531,13.58,1.397,11.21,102.9558,6.845,8.07,60.05,0,110.1,13.24,7.62,327.5
"2016-05-08 01:39:00",1614369,1.128,6.613,18.37,0.979,10.59,102.9561,6.845,7.968,59.98,0,110.1,13.28,7.62,328.6
"2016-05-08 01:39:30",1614370,5.082,41.1,10.84,1.48,12.63,102.9558,6.845,8.09,60.42,0,110.1,13.23,7.62,3.1
"2016-05-08 01:40:00",1614371,5.02,46.16,8.25,1.399,13.17,102.9556,6.844,8.1,60.66,0,110.1,13.24,7.62,8.2
"2016-05-08 01:40:30",1614372,3.881,37.01,6.515,1.544,12.54,102.9547,6.842,8.07,60.5,0,110.1,13.24,7.62,359.0
"2016-05-08 01:41:00",1614373,4.779,39.57,7.625,1.423,13.09,102.9573,6.848,7.992,60.34,0,110.1,13.24,7.62,1.6
"2016-05-08 01:41:30",1614374,5.135,24.71,18.96,1.582,13.71,102.9567,6.847,8.1,60.12,0,110.1,13.24,7.62,346.7
"2016-05-08 01:42:00",1614375,4.065,41.31,15.08,0.81,10.45,102.9592,6.853,7.905,60.02,0,110.1,13.24,7.63,3.3
"2016-05-08 01:42:30",1614376,2.729,27.37,20.38,1.308,11.09,102.9681,6.876,7.997,60.14,0,110.1,13.24,7.65,349.4
"2016-05-08 01:43:00",1614377,3.355,20.26,12.41,1.452,12.78,102.9788,6.903,8.04,59.91,0,110.1,13.24,7.68,342.3
"2016-05-08 01:43:30",1614378,2.761,16.06,15.89,2.381,13.03,102.9847,6.919,8.08,59.78,0,110.1,13.24,7.69,338.1
"2016-05-08 01:44:00",1614379,4.186,33.3,15.08,1.745,13.58,102.991,6.935,8.07,59.25,0,110.1,13.24,7.71,355.3
"2016-05-08 01:44:30",1614380,3.279,47.09,8.6,1.354,12.18,102.9918,6.937,7.946,58.69,0,110.1,13.24,7.71,9.1
"2016-05-08 01:45:00",1614381,3.27,51.19,8.14,1.74,13.28,102.9944,6.943,8.13,59.03,0,110.1,13.24,7.72,13.2
"2016-05-08 01:45:30",1614382,4.892,46.63,8.34,0.727,10.47,102.9935,6.941,7.932,59.11,0,110.1,13.24,7.72,8.6
"2016-05-08 01:46:00",1614383,3.986,39.41,9.67,0.868,10.56,102.9978,6.952,7.954,59.79,0,110.1,13.25,7.73,1.4
"2016-05-08 01:46:30",1614384,4.01,31.61,12.53,1.55,12.86,103.0146,6.995,8.13,59.81,0,110.1,13.24,7.77,353.6
"2016-05-08 01:47:00",1614385,5.39,44.12,8.55,1.587,12.9,103.0151,6.996,8.16,59.7,0,110.1,13.25,7.77,6.1
"2016-05-08 01:47:30",1614386,5.51,44.09,9.5,1.705,13.57,103.0224,7.015,8.16,59.83,0,110.1,13.25,7.79,6.1
"2016-05-08 01:48:00",1614387,4.46,34.04,7.429,1.442,13.19,103.0339,7.044,8.2,59.73,0,110.1,13.24,7.82,356.0
"2016-05-08 01:48:30",1614388,4.114,27.79,4.474,0.957,10.79,103.0312,7.037,8.03,59.41,0,110.1,13.24,7.81,349.8
"2016-05-08 01:49:00",1614389,3.789,36.69,4.067,0.538,10.45,103.0338,7.044,8.01,59.43,0,110.1,13.29,7.82,358.7